Columbia Owens, SC

5:37 PM EDT on June 27, 2017 (GMT -0400)
Columbia Owens Downtown

Weather History for KCUB - March, 2014

Change the Weather History Date:

Sunday, March 30, 2014

  Actual Average Record
Temperature  
Mean Temperature 56 °F 61 °F  
Max Temperature 67 °F 73 °F 86 °F (2012)
Min Temperature 45 °F 49 °F 39 °F (2003)
Degree Days  
Heating Degree Days 9 5  
Month to date heating degree days 384 268  
Since 1 July heating degree days 2376 2197  
Cooling Degree Days 0 1  
Month to date cooling degree days 2 10  
Year to date cooling degree days 8 13  
Growing Degree Days 7 (Base 50)    
Moisture  
Dew Point 30 °F    
Average Humidity 40    
Maximum Humidity 61    
Minimum Humidity 19    
Precipitation  
Precipitation 0.00 in 0.12 in 0.95 in (2011)
Month to date precipitation 3.89 3.76  
Year to date precipitation 10.27 11.04  
Sea Level Pressure  
Sea Level Pressure 29.91 in    
Wind  
Wind Speed 10 mph (NW)    
Max Wind Speed 23 mph    
Max Gust Speed 34 mph    
Visibility 10 miles    
Events      
T = Trace of Precipitation, MM = Missing Value Source: NWS Daily Summary

Daily Weather History Graph

Daily Weather History Graph

Search for Another Location

Airport or City:

Trip Planner

Search our weather history database for the weather conditions in past years. The results will help you decide how hot, cold, wet, or windy it might be!

Date:

Astronomy

Mar. 30, 2014 Rise Set
Actual Time 7:14 AM EDT 7:43 PM EDT
Civil Twilight 6:49 AM EDT 8:08 PM EDT
Nautical Twilight 6:19 AM EDT 8:37 PM EDT
Astronomical Twilight 5:49 AM EDT 9:07 PM EDT
Moon 6:58 AM EDT (3/30) 7:52 PM EDT (3/30)
Length of Visible Light 13h 19m
Length of Day
12h 29m
Waning Crescent, 0% of the Moon is Illuminated
Mar 30
Waning Crescent
Mar 30
New
Apr 7
First Quarter
Apr 15
Full
Apr 22
Last Quarter

Hourly Weather History & Observations

Time (EDT) Temp. Dew Point Humidity Pressure Visibility Wind Dir Wind Speed Gust Speed Precip Events Conditions
12:53 AM 55.9 °F 39.0 °F 53% 29.78 in 10.0 mi West 15.0 mph 24.2 mph N/A   Overcast
1:53 AM 54.0 °F 37.0 °F 53% 29.79 in 10.0 mi West 12.7 mph 23.0 mph N/A   Scattered Clouds
2:53 AM 52.0 °F 36.0 °F 54% 29.79 in 10.0 mi West 12.7 mph 19.6 mph N/A   Scattered Clouds
3:53 AM 50.0 °F 35.1 °F 57% 29.79 in 10.0 mi West 15.0 mph 20.7 mph N/A   Clear
4:53 AM 50.0 °F 36.0 °F 59% 29.80 in 10.0 mi West 9.2 mph - N/A   Clear
5:53 AM 48.9 °F 35.1 °F 59% 29.82 in 10.0 mi WNW 11.5 mph 20.7 mph N/A   Clear
6:53 AM 48.9 °F 30.9 °F 50% 29.84 in 10.0 mi WNW 15.0 mph 24.2 mph N/A   Clear
7:53 AM 48.9 °F 30.0 °F 48% 29.88 in 10.0 mi WNW 10.4 mph 21.9 mph N/A   Clear
8:53 AM 51.1 °F 30.0 °F 44% 29.91 in 10.0 mi NW 16.1 mph 26.5 mph N/A   Clear
9:53 AM 54.0 °F 30.0 °F 40% 29.92 in 10.0 mi NW 17.3 mph 29.9 mph N/A   Clear
10:53 AM 57.0 °F 30.0 °F 36% 29.93 in 10.0 mi NNW 10.4 mph 26.5 mph N/A   Clear
11:53 AM 59.0 °F 30.0 °F 33% 29.94 in 10.0 mi NNW 13.8 mph 28.8 mph N/A   Clear
12:53 PM 61.0 °F 30.0 °F 31% 29.95 in 10.0 mi NNW 18.4 mph 33.4 mph N/A   Clear
1:53 PM 63.0 °F 28.0 °F 27% 29.94 in 10.0 mi NW 16.1 mph 31.1 mph N/A   Clear
2:53 PM 64.9 °F 27.0 °F 24% 29.93 in 10.0 mi NNW 9.2 mph 24.2 mph N/A   Clear
3:53 PM 64.9 °F 21.0 °F 19% 29.93 in 10.0 mi North 12.7 mph 26.5 mph N/A   Clear
4:53 PM 64.9 °F 25.0 °F 22% 29.93 in 10.0 mi WNW 12.7 mph 20.7 mph N/A   Clear
5:53 PM 66.0 °F 25.0 °F 21% 29.94 in 10.0 mi NW 10.4 mph 19.6 mph N/A   Clear
6:53 PM 64.0 °F 24.1 °F 22% 29.96 in 10.0 mi NW 8.1 mph - N/A   Clear
7:53 PM 61.0 °F 26.1 °F 26% 29.98 in 10.0 mi NNW 5.8 mph - N/A   Clear
8:53 PM 59.0 °F 27.0 °F 29% 30.01 in 10.0 mi NW 3.5 mph - N/A   Clear
9:53 PM 53.1 °F 32.0 °F 45% 30.03 in 10.0 mi Calm Calm - N/A   Clear
10:53 PM 53.1 °F 30.0 °F 41% 30.04 in 10.0 mi North 3.5 mph - N/A   Clear
11:53 PM 46.9 °F 34.0 °F 61% 30.06 in 10.0 mi Calm Calm - N/A   Clear